Terminal Aerodrome Forecast
Issued by NWS

Home | Current Version | Previous Version | Text Only | Print | Product List | Glossary On
Versions: 1 2 3 4 5 6 7 8 9 10 11 12 13
000
FTUS45 KGJT 200945 AAA
TAFVEL
TAF AMD
KVEL 200945Z 2010/2106 04010KT P6SM BKN060 OVC070
     FM201500 06013KT P6SM VCSH BKN060 BKN070
     FM201700 07006KT P6SM VCSH BKN060 OVC070
     FM210000 07005KT P6SM BKN040 OVC045=

USA.gov is the U.S. government's official web portal to all federal, state and local government web resources and services.